Location: Ferchesar
(52.6477°N, 12.4298°E)
Time: 10:10:24
(UTC+01:00)

Tiros 1 despin weight - Pass Details

Date: 07 December 2021
Orbit: 592 x 641 km, 48.2° (Epoch: 19 January)

Event Time Altitude Azimuth Distance (km) Brightness Sun altitude
Rises 17:11:17 0° 275° (W) 2,828 ? -10.6°
Reaches altitude 10° 17:13:56 10° 260° (W) 1,923 ? -11.0°
Maximum altitude 17:17:22 23° 209° (SSW) 1,288 ? -11.4°
Drops below altitude 10° 17:20:48 10° 157° (SSE) 1,921 ? -11.9°
Sets 17:23:27 0° 143° (SE) 2,824 ? -12.3°
